Regional Weather Roundup
Issued by NWS Upton, NY

Current Version | Previous Version | Graphics & Text | Print | Product List | Glossary Off
Versions: 1 2 3 4 5 6 7 8 9 10 11 12 13 14 15 16 17 18 19 20 21 22 23 24 25 26 27 28 29 30 31 32 33 34 35 36 37 38 39 40 41 42 43 44 45 46 47 48 49 50

000
ASUS41 KOKX 191405
RWROKX

REGIONAL WEATHER ROUNDUP
NATIONAL WEATHER SERVICE NEW YORK NY
1000 AM EDT TUE AUG 19 2014

NOTE: "FAIR" INDICATES FEW OR NO CLOUDS BELOW 12,000 FEET WITH NO
SIGNIFICANT WEATHER AND/OR OBSTRUCTIONS TO VISIBILITY.

NYZ071-072-176-178-NJZ106-104-191500-
NEW YORK CITY METRO AREA


CITY           SKY/WX    TMP DP  RH WIND       PRES   REMARKS
CENTRAL PARK   SUNNY     71  57  61 VRB7      29.94R
LAGUARDIA APRT MOSUNNY   71  59  65 NE13G18   29.92R
KENNEDY INTL   MOSUNNY   74  61  63 E6        29.92R
NEWARK/LIBERTY MOSUNNY   74  59  59 N5        29.91R
BRNX BOT. GARD   N/A     72  57  60 E6        29.94S
TETERBORO      SUNNY     73  55  53 E7        29.91R
$$

NYZ177-179-078>081-191500-
LONG ISLAND NEW YORK

CITY           SKY/WX    TMP DP  RH WIND       PRES   REMARKS
FARMINGDALE    MOSUNNY   71  60  68 E9        29.92R
ISLIP          MOSUNNY   72  58  61 E6        29.91R
SHIRLEY        SUNNY     73  57  57 VRB5      29.93R
WESTHAMPTON    SUNNY     73  53  49 SE9       29.94R
MONTAUK POINT    N/A     70  56  61 NE6       29.95R
$$

NYZ052-065-067-191500-
HUDSON VALLEY

CITY           SKY/WX    TMP DP  RH WIND       PRES   REMARKS
WHITE PLAINS   SUNNY     70  52  52 E8        29.93R
NEWBURGH       SUNNY     68  55  64 CALM      29.95R
MONTGOMERY     SUNNY     68  55  63 NE6       29.94S
POUGHKEEPSIE   SUNNY     67  55  65 CALM      29.93R
ALBANY         MOSUNNY   65  55  70 NW3       29.95S
$$

NJZ001-105-106-008-010-013-015-019>022-104-191500-
NEW JERSEY

CITY           SKY/WX    TMP DP  RH WIND       PRES   REMARKS
NEWARK/LIBERTY MOSUNNY   74  59  59 N5        29.91R
TETERBORO      SUNNY     73  55  53 E7        29.91R
CALDWELL       SUNNY     71  56  58 VRB6      29.93R
MORRISTOWN     SUNNY     72  59  64 CALM      29.92S
SOMERVILLE     SUNNY     74  58  57 VRB5      29.89R
LINDEN         FAIR      78  63  58 E8        29.93R
SUSSEX         SUNNY     70  54  56 N6        29.93S
ANDOVER          N/A     69  57  65 VRB5      29.93R
TRENTON        SUNNY     74  62  66 E8        29.90R
MILLVILLE      SUNNY     77  61  57 SE8       29.88R
ATLANTIC CITY  MOSUNNY   76  66  71 E12       29.89R
WRIGHTSTOWN    SUNNY     74  67  78 E3        29.87S
TOMS RIVER     MOSUNNY   75  66  73 E3        29.89S
BELMAR         MOSUNNY   73  64  73 SE7       29.90R
$$

PAZ047>061-062-071-191500-
EASTERN PENNSYLVANIA

CITY           SKY/WX    TMP DP  RH WIND       PRES   REMARKS
PHILADELPHIA   MOSUNNY   76  63  64 E8        29.89R
ALLENTOWN      SUNNY     71  55  56 E5        29.91R
SCRANTON       SUNNY     72  54  53 N5        29.91S
$$

CTZ002-004>006-009-010-012-RIZ004-006-007-MAZ004-011-015-191500-
SOUTHERN NEW ENGLAND
 IN CT

CITY           SKY/WX    TMP DP  RH WIND       PRES   REMARKS
BRADLEY INTL   MOSUNNY   67  52  58 VRB3      29.94R
HARTFORD       SUNNY     67  52  58 CALM      29.94R
DANBURY        SUNNY     67  52  58 VRB3      29.95R
WTRBRY/OXFORD  MOSUNNY   66  52  59 SE5       29.96R
BRIDGEPORT     SUNNY     71  51  49 E8        29.93R
MERIDEN        SUNNY     69  51  52 CALM      29.94R
NEW HAVEN      SUNNY     72  54  53 VRB3      29.93R
CHESTER        FAIR      68  52  56 NE3       29.95R
GROTON         SUNNY     70  51  51 NE6       29.93R
WILLIMANTIC    SUNNY     68  53  58 CALM      29.94S

 IN RI

CITY           SKY/WX    TMP DP  RH WIND       PRES   REMARKS
PROVIDENCE     PTSUNNY   70  50  49 VRB3      29.93F
BLOCK ISLAND   SUNNY     66  55  68 NE6       29.94R
WESTERLY       SUNNY     72  49  44 N6        29.94R

 IN MA

CITY           SKY/WX    TMP DP  RH WIND       PRES   REMARKS
BOSTON         MOSUNNY   68  50  52 CALM      29.92S
WORCESTER      SUNNY     66  50  56 NW6       29.95R
WESTFIELD      SUNNY     67  51  56 NE3       29.94R
PROVINCETOWN   SUNNY     66  57  72 MISG      29.93S
NANTUCKET      SUNNY     72  57  59 MISG      29.92S
$$

ANZ330-335-338-340-345-350-353-355-191500-
COASTAL MARINE OBSERVATIONS


STATION/POSITION TIME  SKY/WX   TEMP    WIND        PRES    VSBY  WAVE
                                AIR SEA DIR/SP/G                  HT/PER
                 (UTC)          (F)     (DEG/KT/KT) (MB)    (MI)  (FT/S)
NY HARB ENTRANCE NOT AVBL
4S FIRE IS       NOT AVBL
23SW MTP         1400            69 68              1013.0          2/ 9
HUDSON CANYON    1400            73 73  130/ 10/ 12 1012.3          2/ 8
EXECUTION ROCKS  1400            68 72   50/ 12/ 16   N/A
WESTERN LI SOUND 1400            67      70/ 10/ 14   N/A           1/ 3
CENTRAL LI SOUND 1400            66 71   70/ 10/ 12   N/A           1
EASTERN LI SOUND 1300            66 68   50/  8/ 10   N/A
ROBBINS REEF     1400            71      50/  6/  8   N/A
$$


>>>>>>>>>>>>>>>>>>>>>>>>>>>> KEY <<<<<<<<<<<<<<<<<<<<<<<<<<<
>                                                          <
>     SKY/WX - SKY CONDITION/PRESENT WEATHER               <
>     TMP    - TEMPERATURE IN FAHRENHEIT                   <
>     DP     - DEWPOINT IN FAHRENHEIT                      <
>     RH     - RELATIVE HUMIDITY IN PERCENT                <
>     WIND   - DIRECTION AND SPEED IN MPH                  <
>     PRES   - MEAN SEA LEVEL PRESSURE IN INCHES OF HG     <
>     WCI    - WIND CHILL INDEX                            <
>     VSB    - VISIBILITY IN MILES                         <
>     HX     - HEAT INDEX                                  <
>     TC     - TEMPERATURE IN CELSIUS                      <
>     VRB    - VARIABLE WIND DIRECTION                     <
>                                                          <
>>>>>>>>>>>>>>>>>>>>>>>>>>>> KEY <<<<<<<<<<<<<<<<<<<<<<<<<<<





USA.gov is the U.S. government's official web portal to all federal, state and local government web resources and services.